• In Schweiz
  • Länderverzeichnis
  • Für 7 Tage
  • Wassertemperatur
  • Satellitenkarten
  • Wetterkarte
  • Widgets
  • user-avatar
    Anmelden

    Stündliche Wetter Chichester

    Heute, 19 Februar, Montag

    Zeit Temperatur Niederschläge Wind Luftdruck Luftfeuchtigkeit
    00:00 +6°C° 0 mm 2 m/S 763 mmHg 95%
    01:00 +6°C° 0,2 mm 2 m/S 762 mmHg 96%
    02:00 +6°C° 0,2 mm 2 m/S 762 mmHg 96%
    03:00 +7°C° 0,2 mm 2 m/S 762 mmHg 97%
    04:00 +7°C° 0,2 mm 2 m/S 762 mmHg 97%
    05:00 +7°C° 0,2 mm 2 m/S 761 mmHg 97%
    06:00 +7°C° 0,2 mm 2 m/S 761 mmHg 97%
    07:00 +7°C° 0,3 mm 2 m/S 761 mmHg 97%
    08:00 +8°C° 0,3 mm 2 m/S 761 mmHg 97%
    09:00 +8°C° 0,3 mm 3 m/S 761 mmHg 97%
    10:00 +9°C° 0,1 mm 3 m/S 761 mmHg 94%
    11:00 +10°C° 0,1 mm 3 m/S 761 mmHg 91%
    12:00 +11°C° 0,1 mm 4 m/S 761 mmHg 89%
    13:00 +11°C° 0,1 mm 4 m/S 761 mmHg 88%
    14:00 +11°C° 0,1 mm 4 m/S 760 mmHg 87%
    15:00 +12°C° 0,1 mm 5 m/S 760 mmHg 86%
    16:00 +10°C° 0 mm 5 m/S 760 mmHg 88%
    17:00 +10°C° 0 mm 5 m/S 760 mmHg 90%
    18:00 +9°C° 0 mm 5 m/S 761 mmHg 91%
    19:00 +9°C° 0,1 mm 5 m/S 761 mmHg 92%
    20:00 +9°C° 0,1 mm 6 m/S 761 mmHg 92%
    21:00 +8°C° 0,1 mm 6 m/S 761 mmHg 92%
    22:00 +8°C° 0,2 mm 6 m/S 761 mmHg 92%
    23:00 +8°C° 0,2 mm 6 m/S 761 mmHg 92%

    Morgen, 20 Februar, Dienstag

    Zeit Temperatur Niederschläge Wind Luftdruck Luftfeuchtigkeit
    00:00 +8°C° 0,2 mm 6 m/S 761 mmHg 92%
    01:00 +8°C° 0,1 mm 6 m/S 761 mmHg 92%
    02:00 +7°C° 0,1 mm 6 m/S 761 mmHg 92%
    03:00 +6°C° 0,1 mm 7 m/S 761 mmHg 92%
    04:00 +6°C° 0 mm 7 m/S 762 mmHg 92%
    05:00 +6°C° 0 mm 7 m/S 762 mmHg 91%
    06:00 +6°C° 0 mm 8 m/S 762 mmHg 91%
    07:00 +6°C° 0 mm 8 m/S 762 mmHg 88%
    08:00 +6°C° 0 mm 8 m/S 763 mmHg 85%
    09:00 +5°C° 0 mm 9 m/S 763 mmHg 82%
    10:00 +6°C° 0 mm 9 m/S 764 mmHg 77%
    11:00 +7°C° 0 mm 9 m/S 764 mmHg 73%
    12:00 +7°C° 0 mm 9 m/S 764 mmHg 68%
    13:00 +7°C° 0 mm 9 m/S 764 mmHg 67%
    14:00 +7°C° 0 mm 9 m/S 764 mmHg 66%
    15:00 +7°C° 0 mm 8 m/S 764 mmHg 65%
    16:00 +6°C° 0 mm 8 m/S 765 mmHg 68%
    17:00 +6°C° 0 mm 7 m/S 765 mmHg 70%
    18:00 +5°C° 0 mm 7 m/S 765 mmHg 72%
    19:00 +5°C° 0 mm 8 m/S 765 mmHg 74%
    20:00 +5°C° 0 mm 8 m/S 766 mmHg 76%
    21:00 +5°C° 0 mm 9 m/S 766 mmHg 78%
    22:00 +5°C° 0 mm 9 m/S 767 mmHg 78%
    23:00 +4°C° 0 mm 8 m/S 767 mmHg 79%

    übermorgen, 21 Februar, Mittwoch

    Zeit Temperatur Niederschläge Wind Luftdruck Luftfeuchtigkeit
    00:00 +3°C° 0 mm 7 m/S 767 mmHg 80%
    01:00 +3°C° 0 mm 6 m/S 767 mmHg 81%
    02:00 +2°C° 0 mm 6 m/S 768 mmHg 83%
    03:00 +1°C° 0 mm 5 m/S 768 mmHg 84%
    04:00 +1°C° 0 mm 5 m/S 768 mmHg 85%
    05:00 0°C° 0 mm 5 m/S 768 mmHg 85%
    06:00 0°C° 0 mm 5 m/S 768 mmHg 86%
    07:00 0°C° 0 mm 5 m/S 768 mmHg 84%
    08:00 +1°C° 0 mm 5 m/S 769 mmHg 81%
    09:00 +2°C° 0 mm 5 m/S 769 mmHg 79%
    10:00 +3°C° 0 mm 5 m/S 769 mmHg 76%
    11:00 +5°C° 0 mm 5 m/S 768 mmHg 73%
    12:00 +7°C° 0 mm 4 m/S 768 mmHg 70%
    13:00 +6°C° 0 mm 4 m/S 768 mmHg 71%
    14:00 +6°C° 0 mm 4 m/S 768 mmHg 72%
    15:00 +6°C° 0 mm 4 m/S 767 mmHg 73%
    16:00 +6°C° 0 mm 4 m/S 767 mmHg 77%
    17:00 +5°C° 0 mm 4 m/S 767 mmHg 80%
    18:00 +4°C° 0 mm 4 m/S 767 mmHg 83%
    19:00 +4°C° 0 mm 4 m/S 767 mmHg 85%
    20:00 +2°C° 0 mm 5 m/S 767 mmHg 86%
    21:00 +1°C° 0 mm 5 m/S 767 mmHg 88%
    22:00 +1°C° 0 mm 5 m/S 767 mmHg 90%
    23:00 +1°C° 0 mm 5 m/S 767 mmHg 91%

    22 Februar, Donnerstag

    Zeit Temperatur Niederschläge Wind Luftdruck Luftfeuchtigkeit
    00:00 0°C° 0 mm 5 m/S 766 mmHg 92%
    01:00 0°C° 0 mm 5 m/S 766 mmHg 93%
    02:00 0°C° 0 mm 5 m/S 766 mmHg 93%
    03:00 -1°C° 0 mm 5 m/S 766 mmHg 94%
    04:00 -1°C° 0 mm 5 m/S 765 mmHg 94%
    05:00 -1°C° 0 mm 5 m/S 765 mmHg 94%
    06:00 -2°C° 0 mm 6 m/S 765 mmHg 94%
    07:00 -1°C° 0 mm 6 m/S 765 mmHg 89%
    08:00 +1°C° 0 mm 6 m/S 765 mmHg 84%
    09:00 0°C° 0 mm 7 m/S 766 mmHg 79%
    10:00 +2°C° 0 mm 7 m/S 765 mmHg 73%
    11:00 +3°C° 0 mm 7 m/S 765 mmHg 67%
    12:00 +4°C° 0 mm 7 m/S 765 mmHg 61%
    13:00 +4°C° 0 mm 7 m/S 765 mmHg 60%
    14:00 +4°C° 0 mm 7 m/S 765 mmHg 59%
    15:00 +4°C° 0 mm 7 m/S 764 mmHg 58%
    16:00 +3°C° 0 mm 7 m/S 764 mmHg 62%
    17:00 +2°C° 0 mm 7 m/S 764 mmHg 66%
    18:00 0°C° 0 mm 7 m/S 764 mmHg 71%
    19:00 -1°C° 0 mm 7 m/S 765 mmHg 73%
    20:00 -1°C° 0 mm 7 m/S 765 mmHg 75%
    21:00 -2°C° 0 mm 7 m/S 765 mmHg 77%
    22:00 -2°C° 0 mm 7 m/S 765 mmHg 77%
    23:00 -2°C° 0 mm 7 m/S 765 mmHg 77%

    23 Februar, Freitag

    Zeit Temperatur Niederschläge Wind Luftdruck Luftfeuchtigkeit
    00:00 -2°C° 0 mm 7 m/S 765 mmHg 77%
    01:00 -2°C° 0 mm 7 m/S 765 mmHg 77%
    02:00 -3°C° 0 mm 7 m/S 765 mmHg 78%
    03:00 -3°C° 0 mm 6 m/S 764 mmHg 78%
    04:00 -3°C° 0 mm 7 m/S 764 mmHg 79%
    05:00 -3°C° 0 mm 7 m/S 764 mmHg 80%
    06:00 -3°C° 0 mm 7 m/S 764 mmHg 81%
    07:00 -2°C° 0 mm 8 m/S 765 mmHg 76%
    08:00 -1°C° 0 mm 8 m/S 765 mmHg 72%
    09:00 0°C° 0 mm 9 m/S 765 mmHg 67%
    10:00 0°C° 0 mm 9 m/S 765 mmHg 64%
    11:00 +1°C° 0 mm 9 m/S 765 mmHg 61%
    12:00 +2°C° 0 mm 9 m/S 765 mmHg 58%
    13:00 +2°C° 0 mm 9 m/S 765 mmHg 59%
    14:00 +2°C° 0 mm 9 m/S 764 mmHg 60%
    15:00 +2°C° 0 mm 9 m/S 764 mmHg 61%
    16:00 0°C° 0 mm 9 m/S 764 mmHg 65%
    17:00 -1°C° 0 mm 9 m/S 764 mmHg 69%
    18:00 -2°C° 0 mm 8 m/S 764 mmHg 73%
    19:00 -2°C° 0 mm 8 m/S 765 mmHg 73%
    20:00 -2°C° 0 mm 8 m/S 765 mmHg 73%
    21:00 -2°C° 0 mm 8 m/S 765 mmHg 73%
    22:00 -2°C° 0 mm 8 m/S 765 mmHg 71%
    23:00 -4°C° 0 mm 8 m/S 765 mmHg 70%

    24 Februar, Samstag

    Zeit Temperatur Niederschläge Wind Luftdruck Luftfeuchtigkeit
    00:00 -4°C° 0 mm 8 m/S 765 mmHg 69%
    01:00 -4°C° 0 mm 8 m/S 765 mmHg 69%
    02:00 -4°C° 0 mm 8 m/S 765 mmHg 70%
    03:00 -4°C° 0 mm 8 m/S 765 mmHg 70%
    04:00 -4°C° 0 mm 8 m/S 765 mmHg 70%
    05:00 -4°C° 0 mm 8 m/S 766 mmHg 70%
    06:00 -4°C° 0 mm 8 m/S 766 mmHg 70%
    07:00 -4°C° 0 mm 8 m/S 766 mmHg 65%
    08:00 -3°C° 0 mm 9 m/S 767 mmHg 59%
    09:00 -1°C° 0 mm 9 m/S 767 mmHg 54%
    10:00 0°C° 0 mm 10 m/S 767 mmHg 51%
    11:00 +1°C° 0 mm 10 m/S 767 mmHg 48%
    12:00 +2°C° 0 mm 10 m/S 767 mmHg 45%
    13:00 +2°C° 0 mm 10 m/S 767 mmHg 46%
    14:00 +2°C° 0 mm 10 m/S 766 mmHg 46%
    15:00 +2°C° 0 mm 10 m/S 766 mmHg 46%
    16:00 +1°C° 0 mm 10 m/S 767 mmHg 49%
    17:00 0°C° 0 mm 10 m/S 767 mmHg 52%
    18:00 -2°C° 0 mm 10 m/S 767 mmHg 54%
    19:00 -2°C° 0 mm 10 m/S 768 mmHg 55%
    20:00 -3°C° 0 mm 10 m/S 768 mmHg 55%
    21:00 -3°C° 0 mm 10 m/S 768 mmHg 56%
    22:00 -3°C° 0 mm 10 m/S 768 mmHg 56%
    23:00 -3°C° 0 mm 10 m/S 769 mmHg 57%
    Mehr zeigen